Flag for Germany Weather past 2 weeks in Dietzenbach, Hesse, Germany

Now
54 °F

Overcast.


Feels Like: 54 °F
Forecast: 47 / 67 °F
Wind: 3 mph from Southeast

Location: Frankfurt / M-Flughafen

Current Time: May 27, 2015 at 12:25:56 PM

Latest Report: May 27, 2015 at 12:00 PM


Visibility: 22 mi

Pressure: 30.27 "Hg

Humidity: 56%

Dew point: 39 °F

Location of DietzenbachLocation

Historic Weather in Dietzenbach — Graph

°F

Dietzenbach temperature yesterday

Maximum temperature yesterday: 60 °F (at 5:00 PM)
Minimum temperature yesterday: 47 °F (at 4:00 AM)
Average temperature yesterday: 55 °F

Past Weeks' High & Low Weather Summary

 TemperatureHumidityPressure
High83 °F (May 12, 5:00 PM)98% (May 13, 10:00 PM)30.35 "Hg (May 13, 10:00 PM)
Low40 °F (May 27, 4:00 AM)25% (May 18, 3:00 PM)29.67 "Hg (May 19, 3:00 AM)
Average59 °F60%30.06 "Hg
* Reported May 12 10:00 AM — May 27 10:00 AM, Dietzenbach, Weather by CustomWeather, © 2015

Note: Actual official high and low records may vary slightly from our data, if they occured in-between our weather recording intervals... More about our weather records

Advertising

Dietzenbach weather history for previous 24 hours

 ConditionsComfort  
Time TempWeatherWind HumidityBarometerVisibility
10:00 AM
Wed, May 27
52 °FOvercast.2 mph67%30.28 "Hg19 mi
9:00 AM50 °FOvercast.2 mph77%30.27 "Hg22 mi
8:00 AM46 °FOvercast.1 mph87%30.27 "Hg22 mi
7:00 AM44 °FPartly sunny.1 mph90%30.26 "Hg22 mi
6:00 AM44 °FPartly sunny.2 mph87%30.25 "Hg25 mi
4:00 AM40 °FChilly.1 mph94%30.25 "HgN/A
3:00 AM41 °FClear.1 mph93%30.24 "Hg31 mi
2:00 AM42 °FClear.1 mph87%30.23 "Hg31 mi
1:00 AM44 °FPassing clouds.1 mph85%30.23 "Hg31 mi
12:00 AM48 °FPassing clouds.3 mph75%30.22 "Hg31 mi
11:00 PM
Tue, May 26
53 °FPassing clouds.2 mph61%30.21 "Hg31 mi
10:00 PM55 °FOvercast.3 mph55%30.20 "Hg31 mi
9:00 PM55 °FOvercast.3 mph57%30.18 "Hg31 mi
8:00 PM56 °FOvercast.5 mph52%30.17 "Hg31 mi
7:00 PM56 °FOvercast.7 mph51%30.16 "Hg31 mi
6:00 PM57 °FOvercast.8 mph46%30.14 "Hg31 mi
5:00 PM60 °FPartly sunny.6 mph38%30.12 "Hg31 mi
4:00 PM59 °FPartly sunny.7 mph41%30.12 "Hg31 mi
3:00 PM60 °FPartly sunny.3 mph38%30.11 "Hg31 mi
2:00 PM58 °FOvercast.5 mph42%30.11 "Hg31 mi
1:00 PM59 °FOvercast.5 mph41%30.10 "Hg31 mi
12:00 PM57 °FOvercast.5 mph49%30.09 "Hg22 mi
Weather by CustomWeather, © 2015

See weather overviewHow to use our weather pages